Location: D.A.R.C. Observatory
(36.7133°N, 120.8553°W)
Time: 04:23:07
(UTC-07:00)

Daily predictions for brighter satellites

Satellite Brightness Start Highest point End
(mag) Time Altitude Azimuth Time Altitude Azimuth Time Altitude Azimuth
Cosmos 1455 4.4 00:01:11 10° NW 00:03:16 20° WNW 00:03:16 20° WNW
Cosmos 2333 Rocket 2.9 00:01:53 10° NW 00:07:14 41° WSW 00:07:14 41° WSW
GEOS 3 Rocket 4.3 00:08:44 44° ENE 00:09:13 45° NE 00:14:09 10° NNW
Cosmos 1269 Rocket 4.1 00:04:06 10° NNW 00:08:56 73° NW 00:08:56 73° NW
SL-16 R/B 2.2 00:04:02 10° NNW 00:09:36 75° NE 00:09:36 75° NE
CZ-4B R/B 4.0 00:18:05 19° NNE 00:18:05 19° NNE 00:19:17 10° N
NOSS 2-3 (E) 4.2 00:18:08 63° NNE 00:18:08 63° NNE 00:22:47 10° NNE
Cosmos 2297 Rocket 3.4 00:18:30 29° W 00:20:21 36° WNW 00:25:33 10° N
Meteor 2-10 Rocket 4.5 00:16:46 10° N 00:21:53 42° ENE 00:21:53 42° ENE
CZ-4C R/B 4.5 00:17:19 10° N 00:23:06 26° NE 00:28:37 12° E
CZ-2C R/B 4.1 00:24:38 10° NE 00:27:44 25° ENE 00:27:44 25° ENE
Cosmos 2219 Rocket 4.0 00:26:26 10° WNW 00:29:56 18° W 00:29:56 18° W
SeaSat 1 3.0 00:32:01 54° NW 00:32:01 54° NW 00:35:56 10° NNW
BREEZE-M DEB (TANK) 4.4 00:29:18 10° NW 00:35:57 29° N 00:37:13 24° NE
Cosmos 2184 Rocket 3.9 00:38:04 77° W 00:38:11 78° W 00:44:24 10° N
Lacrosse 4 Rocket 2.9 00:34:39 10° NNW 00:37:19 35° NW 00:37:19 35° NW
Cosmos 1603 4.1 00:37:54 10° NNW 00:43:25 54° ENE 00:43:25 54° ENE
ASTEX 1 4.0 00:46:25 10° N 00:50:14 54° NNW 00:50:14 54° NNW
Cosmos 1733 Rocket 4.3 00:55:52 40° N 00:55:52 40° N 00:58:46 10° N
Cosmos 2341 Rocket 4.2 00:58:10 59° E 00:58:10 59° E 01:04:22 10° NNE
Cosmos 2237 Rocket 4.3 00:57:08 10° WNW 00:59:39 15° W 00:59:39 15° W
ALOS 2 4.1 01:03:09 31° NW 01:03:09 31° NW 01:05:42 10° NNW
H-2A R/B 4.1 01:00:21 10° N 01:03:08 32° NW 01:03:08 32° NW
Cosmos 44 3.9 01:05:25 59° NNE 01:05:25 59° NNE 01:09:49 10° NNE
NOSS 3-4 (A) 4.1 01:05:20 44° E 01:05:20 44° E 01:10:35 10° NE
NOSS 3-4 (C) 4.1 01:05:26 43° E 01:05:26 43° E 01:10:40 10° NE
Cosmos 962 Rocket 4.5 01:07:24 68° ENE 01:07:24 68° ENE 01:13:14 10° NNE
Meteor 1-10 Rocket 4.3 01:08:34 10° N 01:14:07 76° NW 01:14:07 76° NW
COSMOS 2455 4.2 01:11:58 10° NW 01:15:49 28° W 01:15:49 28° W
MOS 1-B Rocket 3.8 01:22:20 78° NW 01:22:20 78° NW 01:27:33 10° NNW
Okean 2 Rocket 4.5 01:28:42 34° NE 01:28:42 34° NE 01:31:39 10° NNE
Cosmos 2366 rocket 4.4 01:37:41 50° E 01:37:55 50° E 01:43:50 10° NNE
Cosmos 2263 Rocket 2.4 01:42:34 65° ENE 01:42:34 65° ENE 01:47:40 10° NNE
CZ-2C R/B 3.2 01:43:44 83° NNE 01:43:44 83° NNE 01:49:13 10° NNW
RESURS DK-1 4.2 01:48:10 27° NE 01:48:10 27° NE 01:50:18 10° NE
Nadezhda 3 Rocket 4.4 01:40:23 10° NNW 01:46:10 51° W 01:46:10 51° W
ATLAS 3B R/B 4.3 01:48:37 10° WNW 01:51:43 19° W 01:51:43 19° W
Cosmos 1975 Rocket 4.1 01:51:38 10° N 01:54:36 43° N 01:54:36 43° N
Cosmos 909 Rocket 4.2 01:58:20 58° ESE 01:58:37 58° ESE 02:05:29 10° NE
Cosmos 1867 4.3 01:54:11 10° NNW 01:59:30 50° NE 02:00:31 44° E
Cosmos 864 Rocket 4.4 02:00:37 72° ESE 02:00:59 74° E 02:07:07 10° N
USA 238 DEB 4.3 01:54:54 10° NW 02:00:38 42° W 02:00:38 42° W
USA 238 4.3 01:55:00 10° NW 02:00:45 43° W 02:00:45 43° W
Cosmos 1624 Rocket 4.4 02:02:31 53° ENE 02:02:31 53° ENE 02:07:05 10° NNE
Cosmos 1727 Rocket 4.2 01:56:13 10° N 02:02:23 60° E 02:03:16 54° ESE
Iridium 4 Rocket 4.3 02:01:39 10° NNE 02:06:08 41° E 02:06:08 41° E
Cosmos 1607 4.3 02:01:28 10° NW 02:06:28 49° W 02:06:28 49° W
CZ-2C R/B 3.8 02:04:47 10° N 02:09:15 30° WNW 02:09:15 30° WNW
Meteor 1-27 Rocket 4.4 02:04:40 10° NNW 02:09:36 43° WNW 02:09:36 43° WNW
CZ-4C R/B 2.8 02:05:03 10° NW 02:12:19 76° WSW 02:13:44 61° S
PSLV R/B 4.4 02:09:28 10° NNE 02:12:33 46° NE 02:12:33 46° NE
Meteor 1-14 Rocket 4.2 02:17:11 80° SSE 02:17:31 85° E 02:23:28 10° N
Cosmos 1943 3.5 02:12:02 10° NNW 02:16:47 53° WNW 02:16:47 53° WNW
USA 234 4.1 02:12:57 10° ESE 02:19:09 49° NE 02:25:24 10° NW
Cosmos 2151 Rocket 4.0 02:26:57 59° N 02:26:57 59° N 02:30:36 10° N
NOSS 3-2 (C) 3.9 02:27:51 10° NW 02:35:29 77° WSW 02:38:29 43° SSE
Okean 1 Rocket 4.1 02:36:36 37° E 02:36:40 38° E 02:40:47 10° NNE
Meteor 1-18 Rocket 4.2 02:41:18 10° N 02:47:00 83° E 02:48:07 59° SSE
Gbstr 26 Del rocket 3.6 02:51:08 44° ENE 02:51:08 44° ENE 02:53:53 10° NE
NPP 3.5 02:45:35 10° NNE 02:51:00 82° ESE 02:51:45 67° S
Cosmos 1190 Rocket 3.9 02:47:55 10° NNW 02:53:09 85° ENE 02:53:56 65° SSE
SL-16 R/B 4.3 02:49:22 10° ESE 02:54:33 28° ENE 02:59:43 10° N
ERS-2 2.8 02:51:37 10° NNE 02:54:39 54° NE 02:54:39 54° NE
BREEZE-M TANK 3.5 02:54:58 10° NW 02:57:48 31° NNE 03:00:12 10° E
GP-B 3.2 02:53:30 10° N 02:57:57 66° E 02:58:13 64° ESE
NOSS 3-2 (A) 4.3 02:51:40 10° NW 02:58:54 46° WSW 03:00:05 43° SW
Cosmos 2056 Rocket 4.0 02:59:00 43° W 02:59:31 45° WNW 03:04:33 10° N
Cosmos 1812 3.0 02:56:32 10° N 02:59:55 64° NNE 02:59:55 64° NNE
NOSS 2-2 (D) 4.3 03:03:32 39° ESE 03:03:32 39° ESE 03:07:41 10° NE
Cosmos 1821 Rocket 4.1 03:02:07 42° SSE 03:04:22 75° E 03:10:46 10° N
IRAS Rocket 4.2 03:00:48 10° N 03:06:18 70° WNW 03:07:25 55° SW
Meteor 1-20 Rocket 4.2 03:05:48 55° SW 03:07:00 72° W 03:12:48 10° N
Cosmos 407 Rocket 3.3 03:03:37 10° NNW 03:08:48 87° WSW 03:10:00 54° SSE
Meteor 1-11 Rocket 4.3 03:08:06 33° SSE 03:10:34 56° E 03:16:23 10° NNE
CZ-2D R/B 3.6 03:06:34 10° NE 03:11:20 30° E 03:14:23 18° SE
SL-27 R/B 2.9 03:08:40 10° NNW 03:11:51 64° N 03:11:51 64° N
Spot 4 Rocket 4.3 03:07:56 10° NNE 03:13:03 63° ESE 03:14:34 43° SSE
Okean 1 3.3 03:11:27 10° N 03:15:12 73° NW 03:15:12 73° NW
Cosmos 676 Rocket 3.9 03:11:39 10° NNW 03:16:52 82° ENE 03:18:59 37° SSE
NOSS 2-2 (C) 3.6 03:17:34 56° SE 03:17:52 58° ESE 03:22:18 10° NE
Cosmos 1844 Rocket 2.6 03:21:38 49° SW 03:23:14 78° WNW 03:28:56 10° NNE
Cosmos 1809 Rocket 4.4 03:21:20 44° SSW 03:23:24 77° W 03:29:34 10° N
USA 161 2.6 03:25:43 43° NE 03:25:43 43° NE 03:28:04 10° N
Cosmos 2263 Rocket 4.2 03:24:15 14° W 03:26:28 17° NW 03:30:00 10° NNW
IRS-1C 4.2 03:25:08 10° N 03:30:25 63° WNW 03:31:59 43° SW
Cosmos 1844 3.6 03:29:25 43° SSW 03:31:23 90° SSE 03:37:10 10° NNE
UNK 3.9 03:28:10 31° SW 03:32:36 76° SE 03:36:15 10° ENE
Cosmos 1300 Rocket 4.2 03:32:56 38° W 03:33:06 38° W 03:37:11 10° N
IRS-1D 3.8 03:28:17 10° NNE 03:33:18 60° E 03:35:33 31° SSE
Yuri Rocket 4.3 03:33:28 36° S 03:33:29 36° S 03:38:06 10° ESE
Meteor 2-16 Rocket 4.4 03:35:07 33° S 03:38:08 88° WNW 03:44:19 10° N
NOSS 2-2 (E) 3.6 03:42:29 47° WSW 03:43:33 67° NW 03:48:16 10° NNE
Cosmos 1954 Rocket 3.9 03:38:49 10° NNW 03:43:58 73° WSW 03:46:48 27° S
Cosmos 1315 Rocket 4.4 03:41:29 16° SE 03:44:01 31° E 03:47:36 10° NNE
COSMOS 2406 3.6 03:39:16 10° NW 03:44:43 44° WSW 03:46:27 35° SSW
UNK 4.3 03:41:07 14° SSE 03:45:01 58° ENE 03:49:35 10° N
Cosmos 2278 Rocket 2.2 03:42:34 33° S 03:45:12 78° ESE 03:50:53 10° NNE
Cosmos 1602 3.7 03:45:13 53° WSW 03:45:41 59° W 03:49:30 10° N
ATLAS 5 CENTAUR R/B 3.8 03:44:16 10° NNW 03:49:54 40° NE 03:55:52 10° ESE
SL-08 R/B 4.3 03:50:28 29° WSW 03:50:48 29° W 03:55:04 10° NW
Cosmos 1892 Rocket 4.0 03:47:52 10° N 03:52:10 60° E 03:55:35 15° SSE
Resurs 1-4 Rocket 2.1 03:50:15 10° NNE 03:55:35 81° ESE 03:58:48 25° S
Cosmos 1356 3.4 03:55:43 43° S 03:56:47 82° E 04:00:21 10° N
Cosmos 1633 2.4 03:57:33 47° SSW 03:58:26 70° W 04:02:03 10° N
Okean 2 4.1 03:54:50 10° N 03:58:51 52° E 04:02:49 10° SSE
USA 234 3.5 03:55:58 10° SSE 04:02:08 45° SW 04:08:20 10° WNW
Cosmos 2082 Rocket 4.1 04:01:05 10° N 04:06:07 31° ENE 04:11:07 10° ESE
ARIANE 5 R/B 2.7 04:01:28 10° N 04:06:21 56° WNW 04:08:54 27° SW
BREEZE-M DEB (TANK) 2.1 04:08:16 38° S 04:08:56 48° SE 04:11:39 10° ENE
Cosmos 1536 3.4 04:09:09 31° SW 04:10:27 42° W 04:14:21 10° N
COSMOS 2487 2.4 04:07:22 10° NNW 04:10:58 69° WSW 04:13:13 21° S
Meteor 2-4 Rocket 3.5 04:06:46 10° N 04:12:10 80° W 04:17:27 10° S
UNKNOWN OBJECT B 2.8 04:12:54 10° N 04:17:00 82° WNW 04:19:34 22° SSW
CZ-2D R/B 3.5 04:15:23 10° NNE 04:19:23 75° ESE 04:22:29 17° S
Cosmos 1447 Rocket 4.4 04:13:23 10° N 04:19:33 80° W 04:25:40 10° S
Cosmos 1461 3.7 04:17:34 24° WSW 04:20:05 47° WNW 04:24:35 10° NNE
Timation 2 Rocket 4.1 04:14:22 10° NNW 04:20:31 75° ENE 04:26:28 10° SSE
CENTAUR R/B 3.1 04:13:02 10° NW 04:20:51 60° WSW 04:28:57 10° SSE
Okean O Rocket 1.9 04:21:08 10° NNE 04:25:27 64° E 04:29:35 11° S
PSLV R/B 4.3 04:21:20 10° NNE 04:25:28 63° E 04:29:17 11° S
Cosmos 2061 Rocket 4.2 04:19:56 10° S 04:26:13 77° E 04:32:36 10° N
Cosmos 1331 Rocket 4.2 04:27:09 12° S 04:32:01 69° ESE 04:37:13 10° NNE
EO 1 Del DPAF 4.1 04:32:46 20° SW 04:34:43 31° W 04:38:13 10° NW
SL-16 R/B 2.9 04:32:02 10° S 04:37:54 42° W 04:43:47 10° NNW
Cosmos 1140 Rocket 4.2 04:33:28 10° NW 04:38:01 33° W 04:42:25 11° SSW
Cosmos 1455 Rocket 3.5 04:36:13 17° SSW 04:39:19 45° W 04:43:36 10° N
CZ-2C R/B 3.8 04:35:38 10° SSE 04:40:21 88° E 04:45:10 10° NNW
Cosmos 1626 Rocket 3.7 04:37:08 10° N 04:41:31 76° E 04:45:54 10° S
Cosmos 1025 Rocket 4.4 04:39:56 10° NW 04:43:08 21° W 04:45:06 15° WSW
Cosmos 1833 Rocket 3.5 04:44:53 10° NNW 04:50:24 55° ENE 04:55:53 10° SE
USA 129 2.2 04:49:23 17° SSW 04:50:42 36° W 04:52:41 10° NNW
CZ-2D R/B 3.1 04:46:34 10° N 04:51:19 32° WNW 04:55:44 12° SW
OAO 3 Copernicus 4.4 04:46:56 12° WSW 04:51:30 67° S 04:56:30 10° E
Cosmos 1400 Rocket 4.5 04:51:39 13° WSW 04:53:45 18° WNW 04:56:31 10° NNW
SME Rocket 4.2 04:55:51 11° SW 04:58:27 21° W 05:01:27 10° NW
Cosmos 2016 Rocket 4.0 04:53:57 10° S 05:00:17 79° W 05:06:35 10° N
Cosmos 1302 Rocket 4.1 05:03:55 10° SSW 05:09:06 88° ESE 05:14:22 10° NNE
APEX 3.8 05:07:43 10° WSW 05:10:13 28° WNW 05:13:05 10° N
Cosmos 1725 Rocket 4.1 05:07:52 10° S 05:14:10 88° E 05:20:27 10° N
Cosmos 2369 Rocket 4.1 05:12:25 10° SSE 05:17:11 28° ESE 05:21:56 10° NE
CZ-4B R/B 3.6 05:16:53 10° N 05:21:14 46° WNW 05:25:30 10° SSW
